Wind_Speed
46 47 47 48 48 49 49 48 48 47 47 47 48 48 48 48 49 49 49 50 50 50 50 50 50 51 51 52 52 53 53 52 52 52 52 52 52 52
46 47 47 47 47 48 48 49 48 48 48 48 48 48 47 48 48 48 48 49 49 49 49 50 50 51 52 52 53 53 53 52 51 51 51 51 52 52
45 46 47 47 47 48 48 48 48 47 47 47 47 46 46 46 46 46 47 48 49 49 49 50 50 51 51 52 52 52 51 51 50 50 51 51 52 52
44 44 44 44 45 45 46 46 46 46 46 46 46 46 46 47 47 47 48 48 48 48 49 49 49 50 50 51 50 50 49 49 50 50 51 52 52 53
43 43 42 42 43 44 45 45 44 45 45 45 45 45 46 47 47 48 48 48 48 48 49 50 50 50 50 50 49 49 50 50 50 51 52 53 53 54
42 42 43 43 43 43 44 43 44 44 44 45 45 46 47 47 47 47 48 48 48 48 48 49 49 48 48 48 49 49 50 50 51 52 52 52 53 53
44 43 44 44 44 44 44 44 45 45 45 45 46 47 47 47 47 47 47 47 47 47 47 47 47 47 47 48 48 48 49 49 50 50 51 51 51 51
45 45 45 44 44 44 45 45 45 45 45 46 46 47 47 46 46 46 46 46 46 46 46 46 46 46 47 47 48 48 48 49 49 49 49 49 49 50
44 44 44 43 43 43 44 44 44 45 45 45 45 45 45 45 46 47 46 46 45 45 45 46 47 46 46 47 48 48 48 48 49 49 49 48 48 48
43 42 42 42 42 42 43 44 44 44 45 45 45 45 45 45 45 45 45 45 45 46 46 46 46 46 46 47 47 47 47 48 48 48 48 47 46 46
40 40 40 40 41 41 41 42 42 43 43 43 42 43 43 43 43 44 44 44 44 45 44 44 44 45 45 46 46 46 46 46 45 45 44 44 44 44
39 39 39 39 39 39 39 40 40 40 40 40 40 41 40 41 41 42 42 42 43 43 42 43 43 43 43 43 43 44 43 43 43 42 42 42 43 43
39 38 38 38 38 39 38 38 38 38 38 38 39 39 39 39 39 40 40 41 41 40 40 40 41 42 42 41 41 41 41 40 40 40 41 41 41 41
38 37 37 37 37 37 37 36 36 36 36 36 36 37 37 37 38 38 38 38 38 38 38 39 40 40 40 39 39 38 37 37 37 38 38 38 38 39
37 37 36 35 35 35 35 35 34 34 34 34 34 35 36 36 36 36 36 36 36 37 38 38 38 38 38 37 35 35 35 36 36 36 36 36 36 36
35 35 34 34 34 33 33 33 33 33 33 33 33 33 33 33 33 33 34 34 35 35 35 36 36 36 35 34 33 33 33 33 33 33 33 33 34 34
33 33 33 33 33 33 32 32 32 31 32 32 32 32 32 32 32 33 33 32 33 33 33 33 33 32 31 30 30 30 30 30 31 31 31 31 31 31
31 32 32 32 32 31 31 31 30 30 30 30 30 30 31 31 31 31 31 31 31 31 31 30 29 28 28 27 28 28 28 28 28 29 29 29 28 28
31 31 31 31 31 30 30 30 29 29 29 29 29 29 29 30 29 29 29 29 29 28 27 26 25 25 24 24 24 25 25 26 26 26 26 26 25 26
31 31 31 31 30 29 29 29 28 28 28 28 28 28 28 28 28 27 26 26 25 24 24 23 23 23 22 22 22 23 23 23 23 23 23 23 24 24
30 30 30 29 29 28 28 27 27 27 27 27 27 27 26 26 25 24 23 23 22 21 21 21 21 21 21 22 22 21 21 21 21 22 21 22 22 21
29 29 28 28 27 26 26 26 26 25 25 25 25 25 24 23 22 22 22 21 21 20 20 20 20 20 20 20 21 20 20 20 20 20 20 20 20 19
28 28 28 28 27 26 25 25 24 24 24 23 22 22 22 21 21 21 21 20 20 20 20 19 19 19 20 20 20 20 19 19 19 18 18 18 17 16
Wind_Direction
277 277 277 277 276 275 276 276 276 276 275 276 276 276 276 276 276 275 276 276 277 276 276 275 274 273 273 272 272 272 273 271 270 269 268 268 268 268
278 278 277 277 276 276 276 276 276 276 275 275 276 276 275 276 276 276 277 277 277 277 276 276 274 274 273 272 273 273 273 272 271 270 269 269 268 268
279 278 278 277 276 277 276 276 276 276 276 275 276 275 276 276 276 276 277 278 278 278 277 276 275 274 274 274 273 273 273 272 272 272 271 269 269 269
280 280 279 278 277 277 277 277 277 276 276 276 276 276 276 276 277 277 278 279 278 278 278 277 276 275 275 274 273 273 273 273 273 273 273 272 271 270
280 279 279 279 278 278 278 277 277 277 277 277 277 277 277 278 278 279 280 280 278 279 279 278 277 276 275 274 273 273 273 274 274 274 273 273 272 271
280 280 279 279 278 279 279 279 278 279 278 277 277 278 278 279 280 280 280 279 279 280 280 279 278 276 276 276 275 275 274 274 275 275 275 274 273 272
279 279 279 279 278 278 279 279 279 280 279 279 279 279 279 279 279 279 279 279 280 280 280 279 278 277 277 276 276 276 276 276 276 276 276 275 274 273
279 279 279 279 279 279 280 280 280 280 280 281 280 280 280 279 279 279 279 280 280 280 280 279 279 278 278 277 277 277 277 277 277 277 276 276 275 273
278 279 279 279 279 280 280 281 280 280 281 281 281 281 280 279 279 279 279 280 281 281 279 280 280 279 279 279 279 278 278 277 277 276 276 276 275 273
278 278 278 278 279 279 280 280 281 281 282 282 282 283 282 280 280 280 281 281 280 281 281 281 281 280 280 280 280 279 278 278 277 276 275 274 273 274
278 279 279 280 280 281 281 281 282 283 283 283 283 283 283 282 281 282 282 282 282 282 282 282 281 281 281 281 281 279 279 278 277 276 275 274 274 273
279 279 279 279 280 280 281 282 283 284 283 283 284 285 284 283 283 282 283 283 282 283 282 282 282 282 281 281 281 280 279 278 277 276 275 274 275 274
280 280 279 280 280 281 281 282 283 284 284 284 285 286 286 284 283 283 284 285 284 283 283 283 283 283 282 282 282 281 280 278 277 277 277 276 276 276
279 279 279 279 281 281 281 282 283 284 285 285 286 287 287 286 285 284 285 285 284 284 284 285 285 284 283 282 282 280 278 278 279 279 279 277 276 275
280 280 280 280 280 280 281 281 282 283 285 286 287 288 288 287 287 286 285 285 285 285 286 286 285 284 284 283 282 279 278 278 279 280 280 278 276 276
280 280 279 279 280 280 282 282 283 284 285 286 287 288 289 288 288 287 286 286 285 286 287 286 285 285 284 282 281 280 280 280 280 280 280 280 279 278
279 279 280 280 280 280 281 282 282 283 285 287 289 290 290 290 290 289 288 287 287 286 285 285 286 286 284 283 282 282 281 282 282 281 280 282 282 280
280 280 280 280 279 279 280 281 283 285 286 288 289 291 292 291 290 289 289 289 288 287 287 285 284 285 286 286 285 284 284 284 284 284 284 284 283 281
279 279 280 280 279 279 279 281 282 285 287 288 290 291 292 292 291 291 291 291 290 289 288 286 285 286 288 289 289 287 286 285 285 285 286 286 285 284
279 279 279 279 278 278 279 280 281 283 285 287 289 291 293 293 292 291 291 291 291 289 288 288 288 288 288 289 291 290 288 287 286 287 287 287 287 286
277 278 278 278 277 277 277 279 281 282 284 286 288 290 292 293 292 291 291 292 292 291 290 290 291 291 291 293 294 294 293 291 291 290 290 290 290 290
277 277 278 277 276 277 277 278 280 281 284 287 288 291 292 293 293 292 292 293 292 291 291 290 290 292 293 295 295 294 294 295 294 292 290 291 292 291
277 277 277 276 276 276 275 276 278 280 284 287 290 292 293 294 295 294 294 293 291 291 291 290 291 293 295 295 295 294 294 295 295 294 294 294 295 295
Height
5653 5651 5649 5647 5646 5644 5642 5641 5640 5639 5638 5637 5635 5634 5633 5632 5631 5630 5629 5628 5626 5625 5624 5623 5621 5620 5619 5618 5617 5616 5615 5614 5613 5613 5612 5611 5610 5610
5641 5639 5637 5635 5633 5631 5630 5628 5627 5626 5625 5624 5623 5622 5620 5620 5619 5618 5616 5615 5613 5612 5610 5609 5608 5606 5605 5604 5602 5601 5600 5599 5598 5598 5597 5596 5596 5596
5629 5626 5624 5623 5621 5619 5617 5616 5614 5613 5612 5612 5610 5609 5608 5607 5606 5605 5603 5601 5600 5598 5596 5595 5593 5592 5590 5589 5587 5586 5585 5584 5584 5583 5582 5581 5581 5581
5617 5614 5612 5610 5608 5607 5605 5604 5602 5601 5600 5600 5598 5597 5596 5595 5594 5592 5590 5589 5587 5585 5583 5581 5579 5577 5576 5574 5573 5572 5571 5570 5569 5568 5567 5567 5566 5565
5605 5603 5600 5598 5597 5595 5593 5592 5591 5589 5588 5587 5587 5585 5584 5582 5581 5579 5577 5575 5573 5571 5569 5567 5565 5563 5561 5560 5559 5558 5557 5556 5555 5554 5552 5551 5550 5549
5593 5591 5589 5587 5585 5584 5582 5581 5579 5578 5576 5575 5575 5573 5572 5570 5568 5566 5564 5562 5560 5557 5555 5553 5551 5549 5548 5546 5545 5544 5543 5541 5540 5538 5537 5536 5535 5534
5582 5580 5578 5576 5574 5572 5571 5569 5567 5566 5564 5563 5562 5561 5559 5557 5555 5553 5550 5548 5546 5544 5542 5539 5537 5536 5534 5532 5531 5529 5528 5526 5525 5524 5522 5520 5519 5518
5569 5568 5566 5564 5562 5561 5559 5558 5556 5554 5553 5551 5550 5548 5546 5544 5542 5539 5537 5535 5533 5532 5529 5526 5524 5522 5520 5519 5517 5515 5513 5511 5510 5509 5507 5505 5504 5503
5557 5556 5554 5553 5551 5549 5548 5546 5544 5542 5541 5539 5537 5535 5534 5531 5529 5526 5524 5521 5520 5518 5516 5514 5511 5509 5507 5505 5503 5501 5499 5497 5495 5494 5493 5491 5490 5489
5546 5544 5543 5541 5540 5538 5536 5534 5533 5531 5529 5527 5525 5523 5521 5518 5516 5514 5511 5509 5507 5505 5503 5501 5498 5496 5494 5491 5489 5487 5485 5483 5481 5479 5478 5477 5476 5475
5535 5533 5532 5530 5529 5527 5525 5523 5521 5519 5516 5514 5512 5510 5508 5506 5503 5501 5498 5497 5495 5493 5490 5488 5486 5484 5482 5479 5476 5474 5471 5469 5468 5466 5464 5463 5462 5461
5524 5523 5521 5520 5518 5516 5514 5512 5510 5507 5505 5503 5501 5498 5496 5493 5491 5489 5486 5484 5482 5481 5478 5476 5474 5471 5470 5468 5464 5461 5458 5456 5455 5453 5452 5450 5449 5448
5513 5512 5511 5509 5507 5505 5503 5501 5499 5496 5494 5492 5490 5487 5484 5482 5479 5477 5475 5472 5470 5468 5466 5464 5462 5459 5456 5455 5453 5449 5446 5445 5443 5441 5440 5438 5437 5435
5503 5501 5500 5498 5496 5494 5492 5490 5488 5486 5483 5481 5479 5477 5474 5471 5469 5466 5464 5461 5459 5457 5454 5452 5450 5447 5445 5443 5441 5438 5436 5434 5432 5431 5429 5427 5425 5424
5492 5491 5489 5487 5486 5484 5482 5480 5478 5476 5474 5471 5469 5466 5464 5461 5458 5456 5453 5450 5448 5446 5443 5441 5438 5436 5433 5431 5429 5427 5426 5424 5422 5420 5418 5416 5414 5413
5482 5480 5479 5477 5475 5474 5473 5471 5469 5467 5464 5462 5459 5457 5454 5451 5449 5446 5444 5441 5439 5436 5433 5430 5427 5425 5423 5421 5419 5417 5415 5414 5412 5410 5408 5406 5404 5403
5472 5471 5469 5468 5466 5465 5463 5461 5459 5457 5455 5453 5450 5448 5445 5442 5440 5437 5434 5432 5429 5427 5424 5421 5418 5415 5413 5411 5410 5408 5406 5404 5402 5400 5399 5397 5396 5394
5463 5461 5460 5459 5457 5456 5454 5453 5451 5449 5446 5444 5442 5439 5437 5434 5431 5428 5426 5423 5421 5418 5415 5413 5410 5408 5406 5404 5402 5400 5398 5396 5394 5392 5390 5388 5387 5386
5453 5452 5451 5450 5448 5447 5446 5444 5442 5441 5438 5436 5434 5431 5428 5426 5423 5420 5417 5415 5412 5410 5408 5405 5403 5401 5399 5398 5396 5393 5391 5389 5386 5385 5383 5380 5379 5378
5444 5443 5442 5441 5440 5438 5437 5436 5434 5432 5430 5428 5426 5423 5421 5418 5415 5413 5410 5408 5406 5403 5401 5399 5397 5394 5393 5391 5389 5387 5384 5382 5380 5378 5376 5374 5372 5371
5435 5434 5433 5432 5431 5430 5429 5428 5426 5425 5423 5421 5419 5416 5413 5411 5408 5406 5404 5401 5399 5397 5395 5393 5391 5389 5387 5385 5383 5381 5379 5376 5373 5372 5370 5368 5366 5365
5426 5425 5425 5424 5423 5422 5421 5420 5418 5417 5415 5413 5411 5409 5406 5404 5402 5400 5398 5395 5393 5391 5390 5388 5386 5384 5382 5380 5378 5376 5374 5371 5369 5366 5365 5363 5360 5359
5417 5417 5416 5415 5415 5414 5413 5412 5411 5409 5408 5406 5404 5402 5400 5398 5396 5394 5392 5390 5388 5386 5384 5383 5381 5379 5377 5375 5373 5370 5368 5366 5364 5362 5360 5357 5355 5354